{"data":{"norad_id":66527,"intl_designator":"2025-265M","name":"STARLINK-35935","alt_names":[],"object_type":"PAYLOAD","status":"ACTIVE","operator":null,"country":"US","launch_date":"2025-11-19","launch_site_code":"AFETR","launch_vehicle":null,"mission":null,"orbit_class":"UNKNOWN","rcs_meters":null,"size_class":null,"mass_kg":null,"dimensions":null,"purposes":["comms"],"wikipedia_slug":null,"has_3d_model":false,"image_url":null,"decayed_at":null,"tle_current":{"epoch":"2026-09-20T16:29:01.176288Z","epoch_age_seconds":73138,"freshness":"FRESH","line1":"1 66527U 25265M   26263.68681917  .00006165  00000+0  23330-3 0  9992","line2":"2 66527  42.9961 256.8715 0001078 282.0632  78.0098 15.27586677 46930","mean_motion":15.27586677,"eccentricity":0.0001078,"inclination_deg":42.9961,"raan_deg":256.8715,"arg_perigee_deg":282.0632,"mean_anomaly_deg":78.0098,"bstar":0.0002333,"rev_number":4693,"period_min":94.266336678714,"perigee_km":482.28946906656,"apogee_km":483.76873647832,"semimajor_km":6861.1661027724,"source":"CELESTRAK","updated_at":"2026-09-21T09:00:35.965521Z"}}}